Location: Del Amo
(33.8464°N, 118.2104°W)
Time: 03:11:33
(UTC+00:00)

SR - Pass Details

Date: 24 September 2024
Orbit: 578 x 855 km, 66.7° (Epoch: 02 October)

Event Time Altitude Azimuth Distance (km) Brightness Sun altitude
Rises 04:19:29 0° 331° (NNW) 3,022 ? -31.7°
Reaches altitude 10° 04:21:43 10° 329° (NNW) 2,147 ? -32.1°
Enters shadow 04:24:31 35° 322° (NW) 1,146 ? -32.6°
Maximum altitude 04:26:36 73° 246° (WSW) 768 - -33.0°
Drops below altitude 10° 04:31:53 10° 162° (SSE) 2,319 - -34.0°
Sets 04:34:23 0° 160° (SSE) 3,284 - -34.5°
